Year,Month,Day,Hour,Minute,Value (Times are PST for insolation in W/m^2)
2021,07,15,00,00,0.00
2021,07,15,00,01,0.00
2021,07,15,00,02,0.00
2021,07,15,00,03,0.00
2021,07,15,00,04,0.00
2021,07,15,00,05,0.00
2021,07,15,00,06,0.00
2021,07,15,00,07,0.00
2021,07,15,00,08,0.00
2021,07,15,00,09,0.00
2021,07,15,00,10,0.00
2021,07,15,00,11,0.00
2021,07,15,00,12,0.00
2021,07,15,00,13,0.00
2021,07,15,00,14,0.00
2021,07,15,00,15,0.00
2021,07,15,00,16,0.00
2021,07,15,00,17,0.00
2021,07,15,00,18,0.00
2021,07,15,00,19,0.00
2021,07,15,00,20,0.00
2021,07,15,00,21,0.00
2021,07,15,00,22,0.00
2021,07,15,00,23,0.00
2021,07,15,00,24,0.00
2021,07,15,00,25,0.00
2021,07,15,00,26,0.00
2021,07,15,00,27,0.00
2021,07,15,00,28,0.00
2021,07,15,00,29,0.00
2021,07,15,00,30,0.00
2021,07,15,00,31,0.00
2021,07,15,00,32,0.00
2021,07,15,00,33,0.00
2021,07,15,00,34,0.00
2021,07,15,00,35,0.00
2021,07,15,00,36,0.00
2021,07,15,00,37,0.00
2021,07,15,00,38,0.00
2021,07,15,00,39,0.00
2021,07,15,00,40,0.00
2021,07,15,00,41,0.00
2021,07,15,00,42,0.00
2021,07,15,00,43,0.00
2021,07,15,00,44,0.00
2021,07,15,00,45,0.00
2021,07,15,00,46,0.00
2021,07,15,00,47,0.00
2021,07,15,00,48,0.00
2021,07,15,00,49,0.00
2021,07,15,00,50,0.00
2021,07,15,00,51,0.00
2021,07,15,00,52,0.00
2021,07,15,00,53,0.00
2021,07,15,00,54,0.00
2021,07,15,00,55,0.00
2021,07,15,00,56,0.00
2021,07,15,00,57,0.00
2021,07,15,00,58,0.00
2021,07,15,00,59,0.00
2021,07,15,01,00,0.00
2021,07,15,01,01,0.00
2021,07,15,01,02,0.00
2021,07,15,01,03,0.00
2021,07,15,01,04,0.00
2021,07,15,01,05,0.00
2021,07,15,01,06,0.00
2021,07,15,01,07,0.00
2021,07,15,01,08,0.00
2021,07,15,01,09,0.00
2021,07,15,01,10,0.00
2021,07,15,01,11,0.00
2021,07,15,01,12,0.00
2021,07,15,01,13,0.00
2021,07,15,01,14,0.00
2021,07,15,01,15,0.00
2021,07,15,01,16,0.00
2021,07,15,01,17,0.00
2021,07,15,01,18,0.00
2021,07,15,01,19,0.00
2021,07,15,01,20,0.00
2021,07,15,01,21,0.00
2021,07,15,01,22,0.00
2021,07,15,01,23,0.00
2021,07,15,01,24,0.00
2021,07,15,01,25,0.00
2021,07,15,01,26,0.00
2021,07,15,01,27,0.00
2021,07,15,01,28,0.00
2021,07,15,01,29,0.00
2021,07,15,01,30,0.00
2021,07,15,01,31,0.00
2021,07,15,01,32,0.00
2021,07,15,01,33,0.00
2021,07,15,01,34,0.00
2021,07,15,01,35,0.00
2021,07,15,01,36,0.00
2021,07,15,01,37,0.00
2021,07,15,01,38,0.00
2021,07,15,01,39,0.00
2021,07,15,01,40,0.00
2021,07,15,01,41,0.00
2021,07,15,01,42,0.00
2021,07,15,01,43,0.00
2021,07,15,01,44,0.00
2021,07,15,01,45,0.00
2021,07,15,01,46,0.00
2021,07,15,01,47,0.00
2021,07,15,01,48,0.00
2021,07,15,01,49,0.00
2021,07,15,01,50,0.00
2021,07,15,01,51,0.00
2021,07,15,01,52,0.00
2021,07,15,01,53,0.00
2021,07,15,01,54,0.00
2021,07,15,01,55,0.00
2021,07,15,01,56,0.00
2021,07,15,01,57,0.00
2021,07,15,01,58,0.00
2021,07,15,01,59,0.00
2021,07,15,02,00,0.00
2021,07,15,02,01,0.00
2021,07,15,02,02,0.00
2021,07,15,02,03,0.00
2021,07,15,02,04,0.00
2021,07,15,02,05,0.00
2021,07,15,02,06,0.00
2021,07,15,02,07,0.00
2021,07,15,02,08,0.00
2021,07,15,02,09,0.00
2021,07,15,02,10,0.00
2021,07,15,02,11,0.00
2021,07,15,02,12,0.00
2021,07,15,02,13,0.00
2021,07,15,02,14,0.00
2021,07,15,02,15,0.00
2021,07,15,02,16,0.00
2021,07,15,02,17,0.00
2021,07,15,02,18,0.00
2021,07,15,02,19,0.00
2021,07,15,02,20,0.00
2021,07,15,02,21,0.00
2021,07,15,02,22,0.00
2021,07,15,02,23,0.00
2021,07,15,02,24,0.00
2021,07,15,02,25,0.00
2021,07,15,02,26,0.00
2021,07,15,02,27,0.00
2021,07,15,02,28,0.00
2021,07,15,02,29,0.00
2021,07,15,02,30,0.00
2021,07,15,02,31,0.00
2021,07,15,02,32,0.00
2021,07,15,02,33,0.00
2021,07,15,02,34,0.00
2021,07,15,02,35,0.00
2021,07,15,02,36,0.00
2021,07,15,02,37,0.00
2021,07,15,02,38,0.00
2021,07,15,02,39,0.00
2021,07,15,02,40,0.00
2021,07,15,02,41,0.00
2021,07,15,02,42,0.00
2021,07,15,02,43,0.00
2021,07,15,02,44,0.00
2021,07,15,02,45,0.00
2021,07,15,02,46,0.00
2021,07,15,02,47,0.00
2021,07,15,02,48,0.00
2021,07,15,02,49,0.00
2021,07,15,02,50,0.00
2021,07,15,02,51,0.00
2021,07,15,02,52,0.00
2021,07,15,02,53,0.00
2021,07,15,02,54,0.00
2021,07,15,02,55,0.00
2021,07,15,02,56,0.00
2021,07,15,02,57,0.00
2021,07,15,02,58,0.00
2021,07,15,02,59,0.00
2021,07,15,03,00,0.00
2021,07,15,03,01,0.00
2021,07,15,03,02,0.00
2021,07,15,03,03,0.00
2021,07,15,03,04,0.00
2021,07,15,03,05,0.00
2021,07,15,03,06,0.00
2021,07,15,03,07,0.00
2021,07,15,03,08,0.00
2021,07,15,03,09,0.00
2021,07,15,03,10,0.00
2021,07,15,03,11,0.00
2021,07,15,03,12,0.00
2021,07,15,03,13,0.00
2021,07,15,03,14,0.00
2021,07,15,03,15,0.00
2021,07,15,03,16,0.00
2021,07,15,03,17,0.00
2021,07,15,03,18,0.00
2021,07,15,03,19,0.00
2021,07,15,03,20,0.00
2021,07,15,03,21,0.00
2021,07,15,03,22,0.00
2021,07,15,03,23,0.00
2021,07,15,03,24,0.00
2021,07,15,03,25,0.00
2021,07,15,03,26,0.00
2021,07,15,03,27,0.00
2021,07,15,03,28,0.00
2021,07,15,03,29,0.00
2021,07,15,03,30,0.00
2021,07,15,03,31,0.00
2021,07,15,03,32,0.00
2021,07,15,03,33,0.00
2021,07,15,03,34,0.00
2021,07,15,03,35,0.00
2021,07,15,03,36,0.00
2021,07,15,03,37,0.00
2021,07,15,03,38,0.00
2021,07,15,03,39,0.00
2021,07,15,03,40,0.00
2021,07,15,03,41,0.00
2021,07,15,03,42,0.00
2021,07,15,03,43,0.00
2021,07,15,03,44,0.00
2021,07,15,03,45,0.00
2021,07,15,03,46,0.00
2021,07,15,03,47,0.00
2021,07,15,03,48,0.00
2021,07,15,03,49,0.00
2021,07,15,03,50,0.00
2021,07,15,03,51,0.00
2021,07,15,03,52,0.00
2021,07,15,03,53,0.00
2021,07,15,03,54,0.00
2021,07,15,03,55,0.00
2021,07,15,03,56,0.00
2021,07,15,03,57,0.00
2021,07,15,03,58,0.00
2021,07,15,03,59,0.00
2021,07,15,04,00,0.00
2021,07,15,04,01,0.00
2021,07,15,04,02,0.00
2021,07,15,04,03,0.00
2021,07,15,04,04,0.00
2021,07,15,04,05,0.00
2021,07,15,04,06,0.00
2021,07,15,04,07,0.00
2021,07,15,04,08,0.00
2021,07,15,04,09,0.00
2021,07,15,04,10,0.00
2021,07,15,04,11,0.00
2021,07,15,04,12,0.00
2021,07,15,04,13,0.00
2021,07,15,04,14,0.00
2021,07,15,04,15,0.00
2021,07,15,04,16,0.00
2021,07,15,04,17,0.00
2021,07,15,04,18,0.00
2021,07,15,04,19,0.00
2021,07,15,04,20,0.00
2021,07,15,04,21,0.00
2021,07,15,04,22,0.00
2021,07,15,04,23,0.00
2021,07,15,04,24,0.00
2021,07,15,04,25,0.00
2021,07,15,04,26,0.00
2021,07,15,04,27,0.00
2021,07,15,04,28,0.00
2021,07,15,04,29,0.00
2021,07,15,04,30,0.00
2021,07,15,04,31,0.00
2021,07,15,04,32,0.00
2021,07,15,04,33,0.00
2021,07,15,04,34,0.00
2021,07,15,04,35,0.00
2021,07,15,04,36,0.00
2021,07,15,04,37,0.00
2021,07,15,04,38,0.00
2021,07,15,04,39,0.00
2021,07,15,04,40,0.00
2021,07,15,04,41,0.00
2021,07,15,04,42,0.00
2021,07,15,04,43,0.00
2021,07,15,04,44,0.00
2021,07,15,04,45,0.00
2021,07,15,04,46,0.00
2021,07,15,04,47,0.00
2021,07,15,04,48,0.00
2021,07,15,04,49,0.00
2021,07,15,04,50,0.00
2021,07,15,04,51,0.00
2021,07,15,04,52,0.00
2021,07,15,04,53,0.00
2021,07,15,04,54,0.00
2021,07,15,04,55,0.00
2021,07,15,04,56,0.00
2021,07,15,04,57,0.00
2021,07,15,04,58,0.00
2021,07,15,04,59,0.00
2021,07,15,05,00,0.00
2021,07,15,05,01,0.00
2021,07,15,05,02,0.00
2021,07,15,05,03,0.00
2021,07,15,05,04,0.00
2021,07,15,05,05,0.00
2021,07,15,05,06,0.00
2021,07,15,05,07,0.00
2021,07,15,05,08,0.00
2021,07,15,05,09,0.00
2021,07,15,05,10,0.00
2021,07,15,05,11,0.00
2021,07,15,05,12,0.00
2021,07,15,05,13,0.00
2021,07,15,05,14,0.00
2021,07,15,05,15,0.00
2021,07,15,05,16,0.00
2021,07,15,05,17,0.00
2021,07,15,05,18,0.00
2021,07,15,05,19,0.00
2021,07,15,05,20,0.00
2021,07,15,05,21,0.00
2021,07,15,05,22,0.00
2021,07,15,05,23,0.00
2021,07,15,05,24,0.00
2021,07,15,05,25,0.00
2021,07,15,05,26,0.00
2021,07,15,05,27,0.00
2021,07,15,05,28,0.00
2021,07,15,05,29,1.80
2021,07,15,05,30,5.00
2021,07,15,05,31,5.00
2021,07,15,05,32,5.00
2021,07,15,05,33,5.00
2021,07,15,05,34,5.20
2021,07,15,05,35,7.00
2021,07,15,05,36,7.00
2021,07,15,05,37,7.00
2021,07,15,05,38,7.00
2021,07,15,05,39,7.00
2021,07,15,05,40,8.70
2021,07,15,05,41,9.00
2021,07,15,05,42,9.00
2021,07,15,05,43,9.00
2021,07,15,05,44,9.90
2021,07,15,05,45,11.00
2021,07,15,05,46,11.00
2021,07,15,05,47,11.00
2021,07,15,05,48,11.10
2021,07,15,05,49,12.00
2021,07,15,05,50,12.00
2021,07,15,05,51,12.00
2021,07,15,05,52,12.00
2021,07,15,05,53,13.40
2021,07,15,05,54,14.00
2021,07,15,05,55,14.00
2021,07,15,05,56,14.00
2021,07,15,05,57,14.60
2021,07,15,05,58,16.00
2021,07,15,05,59,16.00
2021,07,15,06,00,16.00
2021,07,15,06,01,17.70
2021,07,15,06,02,18.00
2021,07,15,06,03,18.00
2021,07,15,06,04,18.00
2021,07,15,06,05,18.50
2021,07,15,06,06,19.00
2021,07,15,06,07,19.00
2021,07,15,06,08,19.00
2021,07,15,06,09,20.90
2021,07,15,06,10,21.00
2021,07,15,06,11,21.00
2021,07,15,06,12,21.00
2021,07,15,06,13,21.00
2021,07,15,06,14,22.40
2021,07,15,06,15,23.00
2021,07,15,06,16,23.00
2021,07,15,06,17,23.00
2021,07,15,06,18,23.60
2021,07,15,06,19,25.00
2021,07,15,06,20,25.00
2021,07,15,06,21,25.00
2021,07,15,06,22,25.00
2021,07,15,06,23,25.10
2021,07,15,06,24,26.40
2021,07,15,06,25,29.80
2021,07,15,06,26,41.10
2021,07,15,06,27,55.20
2021,07,15,06,28,47.70
2021,07,15,06,29,39.80
2021,07,15,06,30,42.80
2021,07,15,06,31,63.40
2021,07,15,06,32,76.70
2021,07,15,06,33,77.40
2021,07,15,06,34,84.40
2021,07,15,06,35,89.50
2021,07,15,06,36,92.40
2021,07,15,06,37,95.10
2021,07,15,06,38,97.60
2021,07,15,06,39,100.70
2021,07,15,06,40,102.90
2021,07,15,06,41,105.80
2021,07,15,06,42,108.40
2021,07,15,06,43,112.40
2021,07,15,06,44,114.40
2021,07,15,06,45,118.40
2021,07,15,06,46,121.10
2021,07,15,06,47,124.00
2021,07,15,06,48,126.80
2021,07,15,06,49,130.90
2021,07,15,06,50,133.70
2021,07,15,06,51,137.10
2021,07,15,06,52,139.60
2021,07,15,06,53,142.70
2021,07,15,06,54,145.80
2021,07,15,06,55,149.80
2021,07,15,06,56,152.40
2021,07,15,06,57,155.40
2021,07,15,06,58,158.40
2021,07,15,06,59,162.20
2021,07,15,07,00,164.50
2021,07,15,07,01,167.90
2021,07,15,07,02,170.20
2021,07,15,07,03,173.10
2021,07,15,07,04,177.50
2021,07,15,07,05,179.20
2021,07,15,07,06,181.40
2021,07,15,07,07,184.10
2021,07,15,07,08,186.90
2021,07,15,07,09,189.20
2021,07,15,07,10,192.10
2021,07,15,07,11,194.70
2021,07,15,07,12,199.10
2021,07,15,07,13,200.40
2021,07,15,07,14,203.40
2021,07,15,07,15,207.40
2021,07,15,07,16,210.30
2021,07,15,07,17,213.10
2021,07,15,07,18,215.70
2021,07,15,07,19,220.10
2021,07,15,07,20,221.80
2021,07,15,07,21,225.70
2021,07,15,07,22,228.40
2021,07,15,07,23,231.20
2021,07,15,07,24,234.80
2021,07,15,07,25,236.80
2021,07,15,07,26,239.30
2021,07,15,07,27,243.20
2021,07,15,07,28,244.70
2021,07,15,07,29,247.80
2021,07,15,07,30,250.60
2021,07,15,07,31,252.50
2021,07,15,07,32,256.20
2021,07,15,07,33,258.10
2021,07,15,07,34,261.00
2021,07,15,07,35,264.90
2021,07,15,07,36,267.00
2021,07,15,07,37,269.30
2021,07,15,07,38,271.70
2021,07,15,07,39,275.20
2021,07,15,07,40,278.20
2021,07,15,07,41,281.40
2021,07,15,07,42,284.30
2021,07,15,07,43,287.50
2021,07,15,07,44,290.30
2021,07,15,07,45,293.30
2021,07,15,07,46,294.80
2021,07,15,07,47,299.00
2021,07,15,07,48,301.20
2021,07,15,07,49,303.40
2021,07,15,07,50,306.90
2021,07,15,07,51,309.60
2021,07,15,07,52,312.40
2021,07,15,07,53,315.70
2021,07,15,07,54,318.30
2021,07,15,07,55,322.20
2021,07,15,07,56,323.70
2021,07,15,07,57,326.90
2021,07,15,07,58,329.50
2021,07,15,07,59,332.80
2021,07,15,08,00,337.20
2021,07,15,08,01,339.10
2021,07,15,08,02,341.50
2021,07,15,08,03,344.10
2021,07,15,08,04,347.00
2021,07,15,08,05,349.20
2021,07,15,08,06,351.40
2021,07,15,08,07,354.50
2021,07,15,08,08,358.90
2021,07,15,08,09,360.80
2021,07,15,08,10,364.70
2021,07,15,08,11,367.40
2021,07,15,08,12,370.20
2021,07,15,08,13,373.20
2021,07,15,08,14,375.60
2021,07,15,08,15,378.30
2021,07,15,08,16,381.80
2021,07,15,08,17,385.80
2021,07,15,08,18,387.50
2021,07,15,08,19,389.10
2021,07,15,08,20,392.90
2021,07,15,08,21,395.70
2021,07,15,08,22,399.00
2021,07,15,08,23,401.60
2021,07,15,08,24,404.70
2021,07,15,08,25,407.00
2021,07,15,08,26,409.90
2021,07,15,08,27,412.40
2021,07,15,08,28,416.40
2021,07,15,08,29,418.30
2021,07,15,08,30,422.40
2021,07,15,08,31,425.00
2021,07,15,08,32,427.00
2021,07,15,08,33,430.00
2021,07,15,08,34,434.80
2021,07,15,08,35,436.00
2021,07,15,08,36,438.30
2021,07,15,08,37,441.50
2021,07,15,08,38,443.80
2021,07,15,08,39,446.40
2021,07,15,08,40,449.20
2021,07,15,08,41,452.80
2021,07,15,08,42,454.80
2021,07,15,08,43,459.10
2021,07,15,08,44,462.50
2021,07,15,08,45,464.70
2021,07,15,08,46,467.40
2021,07,15,08,47,470.30
2021,07,15,08,48,473.80
2021,07,15,08,49,475.90
2021,07,15,08,50,479.80
2021,07,15,08,51,480.80
2021,07,15,08,52,483.70
2021,07,15,08,53,486.80
2021,07,15,08,54,489.60
2021,07,15,08,55,492.90
2021,07,15,08,56,495.70
2021,07,15,08,57,497.40
2021,07,15,08,58,501.70
2021,07,15,08,59,504.70
2021,07,15,09,00,506.90
2021,07,15,09,01,510.30
2021,07,15,09,02,512.00
2021,07,15,09,03,514.60
2021,07,15,09,04,517.30
2021,07,15,09,05,520.40
2021,07,15,09,06,523.30
2021,07,15,09,07,526.50
2021,07,15,09,08,528.20
2021,07,15,09,09,530.50
2021,07,15,09,10,531.00
2021,07,15,09,11,534.40
2021,07,15,09,12,538.40
2021,07,15,09,13,540.40
2021,07,15,09,14,541.90
2021,07,15,09,15,545.50
2021,07,15,09,16,549.20
2021,07,15,09,17,551.70
2021,07,15,09,18,554.20
2021,07,15,09,19,557.50
2021,07,15,09,20,560.50
2021,07,15,09,21,563.50
2021,07,15,09,22,564.00
2021,07,15,09,23,565.50
2021,07,15,09,24,569.40
2021,07,15,09,25,573.00
2021,07,15,09,26,575.50
2021,07,15,09,27,577.30
2021,07,15,09,28,578.90
2021,07,15,09,29,582.30
2021,07,15,09,30,584.70
2021,07,15,09,31,588.40
2021,07,15,09,32,590.90
2021,07,15,09,33,591.60
2021,07,15,09,34,595.20
2021,07,15,09,35,598.50
2021,07,15,09,36,599.00
2021,07,15,09,37,601.80
2021,07,15,09,38,605.40
2021,07,15,09,39,606.40
2021,07,15,09,40,610.00
2021,07,15,09,41,611.00
2021,07,15,09,42,615.00
2021,07,15,09,43,618.20
2021,07,15,09,44,620.40
2021,07,15,09,45,621.00
2021,07,15,09,46,626.00
2021,07,15,09,47,628.00
2021,07,15,09,48,628.30
2021,07,15,09,49,631.00
2021,07,15,09,50,634.80
2021,07,15,09,51,636.00
2021,07,15,09,52,637.70
2021,07,15,09,53,640.10
2021,07,15,09,54,642.70
2021,07,15,09,55,645.70
2021,07,15,09,56,648.50
2021,07,15,09,57,651.20
2021,07,15,09,58,652.00
2021,07,15,09,59,655.40
2021,07,15,10,00,657.20
2021,07,15,10,01,659.40
2021,07,15,10,02,661.70
2021,07,15,10,03,663.50
2021,07,15,10,04,665.20
2021,07,15,10,05,667.40
2021,07,15,10,06,670.50
2021,07,15,10,07,673.10
2021,07,15,10,08,675.40
2021,07,15,10,09,677.70
2021,07,15,10,10,680.50
2021,07,15,10,11,682.00
2021,07,15,10,12,684.90
2021,07,15,10,13,686.80
2021,07,15,10,14,688.90
2021,07,15,10,15,689.40
2021,07,15,10,16,691.70
2021,07,15,10,17,694.50
2021,07,15,10,18,697.30
2021,07,15,10,19,698.00
2021,07,15,10,20,700.50
2021,07,15,10,21,705.00
2021,07,15,10,22,707.00
2021,07,15,10,23,707.30
2021,07,15,10,24,709.00
2021,07,15,10,25,710.00
2021,07,15,10,26,712.80
2021,07,15,10,27,714.80
2021,07,15,10,28,716.90
2021,07,15,10,29,717.80
2021,07,15,10,30,721.30
2021,07,15,10,31,722.90
2021,07,15,10,32,725.20
2021,07,15,10,33,726.00
2021,07,15,10,34,728.40
2021,07,15,10,35,729.40
2021,07,15,10,36,733.50
2021,07,15,10,37,735.70
2021,07,15,10,38,737.50
2021,07,15,10,39,738.00
2021,07,15,10,40,740.80
2021,07,15,10,41,743.60
2021,07,15,10,42,744.30
2021,07,15,10,43,747.40
2021,07,15,10,44,749.70
2021,07,15,10,45,751.50
2021,07,15,10,46,754.40
2021,07,15,10,47,758.10
2021,07,15,10,48,759.00
2021,07,15,10,49,758.30
2021,07,15,10,50,760.40
2021,07,15,10,51,760.00
2021,07,15,10,52,772.10
2021,07,15,10,53,754.80
2021,07,15,10,54,788.80
2021,07,15,10,55,807.00
2021,07,15,10,56,743.70
2021,07,15,10,57,174.00
2021,07,15,10,58,174.00
2021,07,15,10,59,174.00
2021,07,15,11,00,174.00
2021,07,15,11,01,174.00
2021,07,15,11,02,746.60
2021,07,15,11,03,850.70
2021,07,15,11,04,869.20
2021,07,15,11,05,878.50
2021,07,15,11,06,862.50
2021,07,15,11,07,851.00
2021,07,15,11,08,851.00
2021,07,15,11,09,837.40
2021,07,15,11,10,823.60
2021,07,15,11,11,814.00
2021,07,15,11,12,817.80
2021,07,15,11,13,831.20
2021,07,15,11,14,837.60
2021,07,15,11,15,847.10
2021,07,15,11,16,866.20
2021,07,15,11,17,869.50
2021,07,15,11,18,864.00
2021,07,15,11,19,863.10
2021,07,15,11,20,876.50
2021,07,15,11,21,895.60
2021,07,15,11,22,897.10
2021,07,15,11,23,885.60
2021,07,15,11,24,888.80
2021,07,15,11,25,895.30
2021,07,15,11,26,893.00
2021,07,15,11,27,887.30
2021,07,15,11,28,870.20
2021,07,15,11,29,856.00
2021,07,15,11,30,849.60
2021,07,15,11,31,850.80
2021,07,15,11,32,853.20
2021,07,15,11,33,870.00
2021,07,15,11,34,870.00
2021,07,15,11,35,852.00
2021,07,15,11,36,840.00
2021,07,15,11,37,841.60
2021,07,15,11,38,837.20
2021,07,15,11,39,836.60
2021,07,15,11,40,836.00
2021,07,15,11,41,841.00
2021,07,15,11,42,841.60
2021,07,15,11,43,840.00
2021,07,15,11,44,843.40
2021,07,15,11,45,848.80
2021,07,15,11,46,849.00
2021,07,15,11,47,849.70
2021,07,15,11,48,841.50
2021,07,15,11,49,775.20
2021,07,15,11,50,738.00
2021,07,15,11,51,844.60
2021,07,15,11,52,866.20
2021,07,15,11,53,858.50
2021,07,15,11,54,860.30
2021,07,15,11,55,858.80
2021,07,15,11,56,860.20
2021,07,15,11,57,863.00
2021,07,15,11,58,863.00
2021,07,15,11,59,900.00
2021,07,15,12,00,899.90
2021,07,15,12,01,888.80
2021,07,15,12,02,877.00
2021,07,15,12,03,867.70
2021,07,15,12,04,865.00
2021,07,15,12,05,859.00
2021,07,15,12,06,865.30
2021,07,15,12,07,870.60
2021,07,15,12,08,863.20
2021,07,15,12,09,861.40
2021,07,15,12,10,864.20
2021,07,15,12,11,865.00
2021,07,15,12,12,863.30
2021,07,15,12,13,867.70
2021,07,15,12,14,868.60
2021,07,15,12,15,879.50
2021,07,15,12,16,891.50
2021,07,15,12,17,889.60
2021,07,15,12,18,886.00
2021,07,15,12,19,884.30
2021,07,15,12,20,876.50
2021,07,15,12,21,868.40
2021,07,15,12,22,874.20
2021,07,15,12,23,887.00
2021,07,15,12,24,884.60
2021,07,15,12,25,879.00
2021,07,15,12,26,879.00
2021,07,15,12,27,878.00
2021,07,15,12,28,890.00
2021,07,15,12,29,892.50
2021,07,15,12,30,882.00
2021,07,15,12,31,875.20
2021,07,15,12,32,874.00
2021,07,15,12,33,874.80
2021,07,15,12,34,880.50
2021,07,15,12,35,879.40
2021,07,15,12,36,879.60
2021,07,15,12,37,877.90
2021,07,15,12,38,877.80
2021,07,15,12,39,878.40
2021,07,15,12,40,877.30
2021,07,15,12,41,868.90
2021,07,15,12,42,796.00
2021,07,15,12,43,831.70
2021,07,15,12,44,893.50
2021,07,15,12,45,886.00
2021,07,15,12,46,882.50
2021,07,15,12,47,883.70
2021,07,15,12,48,887.80
2021,07,15,12,49,886.60
2021,07,15,12,50,881.30
2021,07,15,12,51,884.00
2021,07,15,12,52,884.80
2021,07,15,12,53,880.20
2021,07,15,12,54,881.50
2021,07,15,12,55,885.60
2021,07,15,12,56,883.20
2021,07,15,12,57,881.30
2021,07,15,12,58,885.30
2021,07,15,12,59,886.10
2021,07,15,13,00,884.00
2021,07,15,13,01,889.60
2021,07,15,13,02,888.20
2021,07,15,13,03,888.80
2021,07,15,13,04,889.80
2021,07,15,13,05,893.00
2021,07,15,13,06,890.70
2021,07,15,13,07,886.90
2021,07,15,13,08,888.50
2021,07,15,13,09,889.00
2021,07,15,13,10,889.00
2021,07,15,13,11,888.00
2021,07,15,13,12,887.00
2021,07,15,13,13,892.30
2021,07,15,13,14,888.20
2021,07,15,13,15,886.00
2021,07,15,13,16,887.90
2021,07,15,13,17,888.00
2021,07,15,13,18,888.30
2021,07,15,13,19,889.90
2021,07,15,13,20,898.00
2021,07,15,13,21,913.20
2021,07,15,13,22,891.60
2021,07,15,13,23,887.40
2021,07,15,13,24,882.50
2021,07,15,13,25,865.70
2021,07,15,13,26,853.00
2021,07,15,13,27,884.80
2021,07,15,13,28,885.40
2021,07,15,13,29,884.30
2021,07,15,13,30,885.90
2021,07,15,13,31,886.70
2021,07,15,13,32,887.20
2021,07,15,13,33,884.00
2021,07,15,13,34,888.10
2021,07,15,13,35,891.00
2021,07,15,13,36,891.00
2021,07,15,13,37,882.70
2021,07,15,13,38,883.60
2021,07,15,13,39,882.00
2021,07,15,13,40,883.90
2021,07,15,13,41,883.70
2021,07,15,13,42,879.90
2021,07,15,13,43,879.00
2021,07,15,13,44,879.00
2021,07,15,13,45,879.00
2021,07,15,13,46,879.00
2021,07,15,13,47,877.20
2021,07,15,13,48,874.40
2021,07,15,13,49,874.00
2021,07,15,13,50,874.00
2021,07,15,13,51,869.00
2021,07,15,13,52,810.80
2021,07,15,13,53,874.00
2021,07,15,13,54,874.00
2021,07,15,13,55,874.00
2021,07,15,13,56,874.00
2021,07,15,13,57,872.40
2021,07,15,13,58,874.50
2021,07,15,13,59,871.60
2021,07,15,14,00,870.70
2021,07,15,14,01,872.00
2021,07,15,14,02,869.60
2021,07,15,14,03,868.00
2021,07,15,14,04,865.60
2021,07,15,14,05,867.80
2021,07,15,14,06,866.00
2021,07,15,14,07,864.40
2021,07,15,14,08,866.00
2021,07,15,14,09,865.00
2021,07,15,14,10,865.00
2021,07,15,14,11,863.30
2021,07,15,14,12,861.10
2021,07,15,14,13,862.00
2021,07,15,14,14,863.20
2021,07,15,14,15,860.00
2021,07,15,14,16,860.00
2021,07,15,14,17,858.60
2021,07,15,14,18,858.00
2021,07,15,14,19,859.50
2021,07,15,14,20,856.00
2021,07,15,14,21,856.00
2021,07,15,14,22,855.10
2021,07,15,14,23,853.40
2021,07,15,14,24,851.70
2021,07,15,14,25,851.00
2021,07,15,14,26,850.80
2021,07,15,14,27,848.50
2021,07,15,14,28,847.00
2021,07,15,14,29,846.50
2021,07,15,14,30,844.80
2021,07,15,14,31,842.60
2021,07,15,14,32,842.00
2021,07,15,14,33,838.50
2021,07,15,14,34,843.00
2021,07,15,14,35,839.30
2021,07,15,14,36,838.90
2021,07,15,14,37,840.00
2021,07,15,14,38,838.60
2021,07,15,14,39,838.00
2021,07,15,14,40,835.10
2021,07,15,14,41,834.60
2021,07,15,14,42,833.00
2021,07,15,14,43,832.10
2021,07,15,14,44,830.40
2021,07,15,14,45,828.50
2021,07,15,14,46,826.30
2021,07,15,14,47,825.80
2021,07,15,14,48,823.80
2021,07,15,14,49,823.00
2021,07,15,14,50,823.00
2021,07,15,14,51,823.00
2021,07,15,14,52,821.50
2021,07,15,14,53,816.80
2021,07,15,14,54,815.80
2021,07,15,14,55,813.60
2021,07,15,14,56,811.30
2021,07,15,14,57,810.00
2021,07,15,14,58,808.30
2021,07,15,14,59,807.00
2021,07,15,15,00,807.00
2021,07,15,15,01,806.80
2021,07,15,15,02,805.00
2021,07,15,15,03,805.00
2021,07,15,15,04,804.00
2021,07,15,15,05,803.00
2021,07,15,15,06,803.00
2021,07,15,15,07,802.20
2021,07,15,15,08,799.90
2021,07,15,15,09,797.50
2021,07,15,15,10,796.00
2021,07,15,15,11,795.50
2021,07,15,15,12,795.00
2021,07,15,15,13,793.60
2021,07,15,15,14,789.80
2021,07,15,15,15,788.50
2021,07,15,15,16,784.40
2021,07,15,15,17,785.30
2021,07,15,15,18,784.00
2021,07,15,15,19,782.80
2021,07,15,15,20,779.90
2021,07,15,15,21,779.80
2021,07,15,15,22,778.80
2021,07,15,15,23,776.00
2021,07,15,15,24,772.70
2021,07,15,15,25,771.10
2021,07,15,15,26,770.00
2021,07,15,15,27,771.40
2021,07,15,15,28,774.40
2021,07,15,15,29,778.10
2021,07,15,15,30,771.60
2021,07,15,15,31,768.30
2021,07,15,15,32,770.40
2021,07,15,15,33,782.40
2021,07,15,15,34,789.50
2021,07,15,15,35,806.40
2021,07,15,15,36,805.70
2021,07,15,15,37,766.10
2021,07,15,15,38,816.10
2021,07,15,15,39,790.30
2021,07,15,15,40,770.90
2021,07,15,15,41,765.00
2021,07,15,15,42,737.50
2021,07,15,15,43,735.50
2021,07,15,15,44,746.60
2021,07,15,15,45,742.50
2021,07,15,15,46,738.90
2021,07,15,15,47,738.80
2021,07,15,15,48,735.80
2021,07,15,15,49,736.70
2021,07,15,15,50,731.10
2021,07,15,15,51,728.80
2021,07,15,15,52,727.30
2021,07,15,15,53,724.20
2021,07,15,15,54,722.00
2021,07,15,15,55,719.80
2021,07,15,15,56,717.30
2021,07,15,15,57,715.00
2021,07,15,15,58,715.50
2021,07,15,15,59,717.00
2021,07,15,16,00,716.00
2021,07,15,16,01,716.20
2021,07,15,16,02,715.60
2021,07,15,16,03,712.50
2021,07,15,16,04,714.50
2021,07,15,16,05,712.00
2021,07,15,16,06,711.30
2021,07,15,16,07,707.50
2021,07,15,16,08,702.60
2021,07,15,16,09,701.00
2021,07,15,16,10,705.90
2021,07,15,16,11,705.60
2021,07,15,16,12,710.00
2021,07,15,16,13,709.30
2021,07,15,16,14,706.50
2021,07,15,16,15,703.80
2021,07,15,16,16,703.00
2021,07,15,16,17,697.00
2021,07,15,16,18,695.10
2021,07,15,16,19,685.80
2021,07,15,16,20,683.40
2021,07,15,16,21,684.20
2021,07,15,16,22,683.20
2021,07,15,16,23,686.10
2021,07,15,16,24,688.70
2021,07,15,16,25,683.00
2021,07,15,16,26,668.00
2021,07,15,16,27,661.50
2021,07,15,16,28,667.00
2021,07,15,16,29,668.00
2021,07,15,16,30,666.50
2021,07,15,16,31,660.00
2021,07,15,16,32,658.80
2021,07,15,16,33,657.00
2021,07,15,16,34,659.40
2021,07,15,16,35,669.90
2021,07,15,16,36,680.80
2021,07,15,16,37,692.80
2021,07,15,16,38,703.30
2021,07,15,16,39,703.10
2021,07,15,16,40,670.00
2021,07,15,16,41,670.00
2021,07,15,16,42,670.00
2021,07,15,16,43,670.00
2021,07,15,16,44,672.10
2021,07,15,16,45,665.70
2021,07,15,16,46,673.00
2021,07,15,16,47,671.20
2021,07,15,16,48,658.00
2021,07,15,16,49,644.50
2021,07,15,16,50,667.20
2021,07,15,16,51,698.00
2021,07,15,16,52,700.60
2021,07,15,16,53,689.50
2021,07,15,16,54,696.80
2021,07,15,16,55,706.90
2021,07,15,16,56,699.50
2021,07,15,16,57,681.40
2021,07,15,16,58,660.20
2021,07,15,16,59,639.00
2021,07,15,17,00,623.30
2021,07,15,17,01,615.20
2021,07,15,17,02,608.50
2021,07,15,17,03,602.70
2021,07,15,17,04,593.30
2021,07,15,17,05,580.80
2021,07,15,17,06,567.80